Showing default

IMPULSE-2 MIRA, 62673

Orbit data source: Space-Track

IMPULSE-2 MIRA, 62673 is a payload satellite owned by Impulse Space (US) in SSO that was launched on Tue, 14 Jan 2025 UTC via an FALCON 9 launch vehicle from the Air Force Western Test Range (AFWTR). Payload-class satellites include a variety of spacecraft equipped with specific instruments for various scientific and technological missions. These include communications satellites like Starlink; space stations such as the ISS; scientific satellites like the Hubble; Earth observation satellites from companies like Planet Labs, Umbra, and HawkEye 360; GPS; miniature CubeSats for education and research; and military/defense satellites.

Loading next visibility...
Identifier
62673, 2025-009BS
Orbit
SSO
Country
Flag of USUS
Related business
Manufacturer
Impulse Space
Mission
Operational Commercial Technology
Bus & Motor
MIRA, AOCS
Mass
250 kg wet, 200 kg dry
Launch date (UTC)
2025-01-14 (1 year ago)
Launch vehicle
FALCON 9
Launch site
Air Force Western Test Range (AFWTR)
Object type
Payload
Rocket body
Debris
Shape & HBR
Box, 1.2 m
Radar Cross Section
0.575 m², Medium (>0.1 m² and < 1m²)

Expand to show TLE details & history
Last TLE update: 7 hours ago

TLE from 7 hours ago
0 IMPULSE-2 MIRA
1 62673U 25009BS  26125.09253184  .00009131  00000-0  35023-3 0  9998
2 62673  96.6243 199.9837 0009586 166.7731 193.3762 15.26634299130025
Epoch: 2026-05-05T02:13Z
TLE epoch observation values (Epoch: 2026-05-05T02:13:14.750Z)
Latitude
-0.00015°
Longitude
-56.30008°
Altitude
495.406 km
Speed
7.613 km/s
True Right ascension
13h 19m 56s
True Declination
0° 00' 01"
Sunlit
Object was in full shadow at epoch
Visualization orbit readout
Latitude
Unknown
Longitude
Unknown
Altitude
Unknown
Speed
Unknown
Apparent Right ascension
Unknown
Apparent Declination
Unknown
Sunlit
N/A
Visualization observer readout
Local Sidereal Time
16:46:15
Azimuth
Unknown
Elevation
Unknown
Doppler factor
Unknown
Orbital elements
Apogee altitude
489.384 km
Perigee altitude
476.231 km
Semi-major axis
6,860.945 km
Eccentricity
0.00096
Inclination
96.6243°
RAAN
199.9837°
Arg. of periapsis
166.7731°
True anomaly
193.35082°
Mean anomaly
193.3762°
Eccentric anomaly
193.36351°
Mean motion
3.81916 °/min
Orbital period
94.26 mins
BSTAR
0.00035023
Loading maneuver chart data...
Computing Atmospheric mass density...
Loading historical data...
Loading historical data...
Loading historical data...
Loading historical data...
Loading historical data...
Loading historical data...
Loading historical data...

Documentation

Showing up to 5 results
|